CDC8987 ZSLI-VMMC

Flight info

Callsign CDC8987
Flight time 1h 34m
Altitude 30100
Route BZ9Z BZ A470 DOTMI DCT SAMMI J101 SMT SMT5B
Aircraft A21N/M-SDE2E3FGHIRWXY/LB1

Departure

Time 2026-04-16 09:04
Airport Lishui Airport (ZSLI)

Arrival

Time 2026-04-16 10:38
Airport Macau International Airport (VMMC)
Time Latitude Longitude Altitude Speed Heading
2026-04-16 08:25 28.37464 119.83562 560 ft 0 kts 324°
2026-04-16 08:54 28.37462 119.83563 558 ft 2 kts 324°
2026-04-16 08:55 28.37450 119.83574 558 ft 2 kts 323°
2026-04-16 08:55 28.37437 119.83583 558 ft 2 kts 343°
2026-04-16 08:55 28.37422 119.83584 558 ft 2 kts 13°
2026-04-16 08:55 28.37408 119.83576 558 ft 2 kts 44°
2026-04-16 08:56 28.37400 119.83563 558 ft 0 kts 60°
2026-04-16 08:56 28.37398 119.83561 558 ft 0 kts 58°
2026-04-16 08:58 28.37399 119.83562 558 ft 0 kts 58°
2026-04-16 08:59 28.37405 119.83602 558 ft 7 kts 111°
2026-04-16 08:59 28.37367 119.83645 558 ft 8 kts 144°
2026-04-16 08:59 28.37305 119.83694 558 ft 12 kts 145°
2026-04-16 08:59 28.37232 119.83731 558 ft 11 kts 195°
2026-04-16 09:00 28.37173 119.83662 558 ft 15 kts 235°
2026-04-16 09:00 28.37088 119.83525 558 ft 23 kts 235°
2026-04-16 09:00 28.36997 119.83379 559 ft 22 kts 235°
2026-04-16 09:00 28.36909 119.83237 559 ft 21 kts 235°
2026-04-16 09:01 28.36737 119.82961 559 ft 20 kts 235°
2026-04-16 09:01 28.36655 119.82828 559 ft 20 kts 235°
2026-04-16 09:01 28.36576 119.82703 559 ft 19 kts 235°
2026-04-16 09:02 28.36504 119.82581 559 ft 15 kts 250°
2026-04-16 09:02 28.36490 119.82483 559 ft 12 kts 244°
2026-04-16 09:02 28.36434 119.82472 560 ft 9 kts 96°
2026-04-16 09:02 28.36449 119.82500 559 ft 0 kts 52°
2026-04-16 09:03 28.36450 119.82503 560 ft 3 kts 52°
2026-04-16 09:04 28.36569 119.82690 559 ft 66 kts 55°
2026-04-16 09:04 28.36967 119.83330 559 ft 132 kts 55°
2026-04-16 09:04 28.37611 119.84362 634 ft 178 kts 55°
2026-04-16 09:04 28.38331 119.85501 1250 ft 181 kts 55°
2026-04-16 09:05 28.39053 119.86652 1971 ft 183 kts 56°
2026-04-16 09:05 28.39784 119.87827 2638 ft 189 kts 57°
2026-04-16 09:05 28.40564 119.89092 3105 ft 203 kts 56°
2026-04-16 09:05 28.41467 119.90390 3509 ft 220 kts 42°
2026-04-16 09:06 28.42913 119.91039 3971 ft 234 kts
2026-04-16 09:06 28.44479 119.90565 4630 ft 234 kts 321°
2026-04-16 09:06 28.45463 119.89213 5487 ft 223 kts 288°
2026-04-16 09:06 28.45618 119.87550 6282 ft 217 kts 257°
2026-04-16 09:07 28.44956 119.86050 7066 ft 217 kts 228°
2026-04-16 09:07 28.43688 119.85168 7740 ft 227 kts 199°
2026-04-16 09:07 28.42156 119.84833 8428 ft 231 kts 196°
2026-04-16 09:07 28.40583 119.84502 9084 ft 234 kts 197°
2026-04-16 09:08 28.39003 119.84155 9769 ft 234 kts 198°
2026-04-16 09:08 28.37403 119.83894 10404 ft 242 kts 184°
2026-04-16 09:08 28.35733 119.84340 10929 ft 261 kts 160°
2026-04-16 09:08 28.34087 119.85371 11300 ft 279 kts 154°
2026-04-16 09:09 28.32393 119.86529 11624 ft 296 kts 154°
2026-04-16 09:09 28.30572 119.87771 11948 ft 312 kts 154°
2026-04-16 09:09 28.28643 119.89060 12270 ft 329 kts 154°
2026-04-16 09:09 28.26618 119.90394 12573 ft 346 kts 154°
2026-04-16 09:10 28.24493 119.91790 12871 ft 362 kts 154°
2026-04-16 09:10 28.22172 119.92973 13134 ft 372 kts 167°
2026-04-16 09:10 28.19587 119.93391 13398 ft 379 kts 184°
2026-04-16 09:10 28.16935 119.93073 13665 ft 390 kts 192°
2026-04-16 09:11 28.14199 119.92539 13924 ft 402 kts 195°
2026-04-16 09:11 28.11575 119.91428 14153 ft 407 kts 212°
2026-04-16 09:11 28.09365 119.89490 14670 ft 405 kts 228°
2026-04-16 09:11 28.07743 119.86905 15252 ft 402 kts 244°
2026-04-16 09:12 28.06869 119.83949 15769 ft 403 kts 260°
2026-04-16 09:12 28.06789 119.80772 16235 ft 407 kts 275°
2026-04-16 09:12 28.07169 119.77609 16721 ft 408 kts 278°
2026-04-16 09:12 28.07608 119.74416 17179 ft 410 kts 277°
2026-04-16 09:13 28.08040 119.71225 17624 ft 413 kts 278°
2026-04-16 09:13 28.08392 119.68047 18018 ft 415 kts 272°
2026-04-16 09:13 28.08024 119.64796 18389 ft 418 kts 256°
2026-04-16 09:13 28.06856 119.61776 18901 ft 421 kts 241°
2026-04-16 09:14 28.05027 119.59199 19234 ft 429 kts 226°
2026-04-16 09:14 28.02586 119.57254 19550 ft 440 kts 211°
2026-04-16 09:14 27.99711 119.56119 19887 ft 452 kts 196°
2026-04-16 09:14 27.96480 119.55859 20248 ft 461 kts 185°
2026-04-16 09:15 27.93274 119.55861 20612 ft 464 kts 185°
2026-04-16 09:15 27.90030 119.55861 20890 ft 468 kts 185°
2026-04-16 09:15 27.86762 119.55849 21193 ft 471 kts 185°
2026-04-16 09:15 27.83487 119.55837 21531 ft 472 kts 185°
2026-04-16 09:16 27.80234 119.55821 21843 ft 474 kts 185°
2026-04-16 09:16 27.76881 119.55801 22141 ft 477 kts 185°
2026-04-16 09:16 27.73561 119.55784 22426 ft 479 kts 186°
2026-04-16 09:16 27.70234 119.55767 22705 ft 482 kts 185°
2026-04-16 09:17 27.66887 119.55744 23033 ft 483 kts 186°
2026-04-16 09:17 27.63530 119.55727 23379 ft 483 kts 185°
2026-04-16 09:17 27.60176 119.55708 23780 ft 482 kts 186°
2026-04-16 09:17 27.56813 119.55688 24266 ft 479 kts 185°
2026-04-16 09:18 27.53466 119.55670 24727 ft 477 kts 185°
2026-04-16 09:18 27.50187 119.55652 25087 ft 477 kts 185°
2026-04-16 09:18 27.46836 119.55633 25452 ft 477 kts 186°
2026-04-16 09:18 27.43553 119.55614 25879 ft 475 kts 186°
2026-04-16 09:19 27.40250 119.55605 26359 ft 472 kts 186°
2026-04-16 09:19 27.36964 119.55600 26734 ft 471 kts 185°
2026-04-16 09:19 27.33659 119.55595 27073 ft 471 kts 185°
2026-04-16 09:19 27.30402 119.55589 27434 ft 470 kts 186°
2026-04-16 09:20 27.27123 119.55585 27844 ft 468 kts 186°
2026-04-16 09:20 27.23870 119.55577 28264 ft 466 kts 185°
2026-04-16 09:20 27.20657 119.55559 28681 ft 463 kts 186°
2026-04-16 09:20 27.17431 119.55539 29002 ft 463 kts 186°
2026-04-16 09:21 27.14220 119.55516 29226 ft 464 kts 186°
2026-04-16 09:21 27.10975 119.55492 29479 ft 465 kts 186°
2026-04-16 09:21 27.07750 119.55470 29736 ft 466 kts 186°
2026-04-16 09:21 27.04475 119.55450 30002 ft 466 kts 186°
2026-04-16 09:22 27.01219 119.55428 30039 ft 467 kts 186°
2026-04-16 09:22 26.94605 119.55384 30044 ft 468 kts 186°
2026-04-16 09:23 26.88017 119.55344 30048 ft 470 kts 186°
2026-04-16 09:23 26.81330 119.55302 30045 ft 470 kts 186°
2026-04-16 09:24 26.74607 119.55259 30042 ft 469 kts 186°
2026-04-16 09:24 26.67789 119.55214 30040 ft 471 kts 186°
2026-04-16 09:25 26.60904 119.55171 30035 ft 471 kts 186°
2026-04-16 09:25 26.54004 119.55124 30034 ft 473 kts 186°
2026-04-16 09:26 26.47059 119.55080 30028 ft 473 kts 186°
2026-04-16 09:26 26.40138 119.55039 30025 ft 475 kts 186°
2026-04-16 09:27 26.33123 119.54988 30022 ft 475 kts 186°
2026-04-16 09:27 26.26215 119.54825 30020 ft 471 kts 190°
2026-04-16 09:28 26.19385 119.53775 30018 ft 468 kts 198°
2026-04-16 09:28 26.12763 119.51769 30021 ft 464 kts 202°
2026-04-16 09:29 26.06146 119.49500 30019 ft 465 kts 202°
2026-04-16 09:29 25.99566 119.47250 30021 ft 466 kts 202°
2026-04-16 09:30 25.93117 119.45055 30023 ft 466 kts 203°
2026-04-16 09:30 25.86690 119.42870 30024 ft 466 kts 202°
2026-04-16 09:31 25.80280 119.40677 30025 ft 465 kts 204°
2026-04-16 09:31 25.74363 119.37526 30028 ft 453 kts 217°
2026-04-16 09:32 25.69406 119.33088 30023 ft 446 kts 229°
2026-04-16 09:32 25.65056 119.28020 30020 ft 445 kts 230°
2026-04-16 09:33 25.60739 119.22929 30014 ft 445 kts 230°
2026-04-16 09:33 25.56220 119.17625 30013 ft 444 kts 230°
2026-04-16 09:34 25.51688 119.12316 30013 ft 444 kts 230°
2026-04-16 09:34 25.47175 119.07039 30018 ft 443 kts 230°
2026-04-16 09:35 25.42664 119.01766 30020 ft 443 kts 230°
2026-04-16 09:35 25.38137 118.96480 30021 ft 443 kts 230°
2026-04-16 09:36 25.33638 118.91232 30013 ft 442 kts 231°
2026-04-16 09:36 25.29300 118.85997 30008 ft 442 kts 231°
2026-04-16 09:37 25.24970 118.80743 30001 ft 442 kts 231°
2026-04-16 09:37 25.20694 118.75568 30002 ft 442 kts 231°
2026-04-16 09:38 25.16427 118.70410 30005 ft 442 kts 231°
2026-04-16 09:38 25.12160 118.65261 30020 ft 441 kts 231°
2026-04-16 09:39 25.07944 118.60220 30024 ft 441 kts 230°
2026-04-16 09:39 25.03619 118.55269 30021 ft 441 kts 230°
2026-04-16 09:40 24.99316 118.50355 30015 ft 440 kts 230°
2026-04-16 09:40 24.94965 118.45377 30009 ft 440 kts 230°
2026-04-16 09:41 24.90605 118.40384 30005 ft 441 kts 230°
2026-04-16 09:41 24.86199 118.35342 30000 ft 442 kts 230°
2026-04-16 09:42 24.81736 118.30241 29998 ft 442 kts 229°
2026-04-16 09:42 24.77290 118.25163 29995 ft 441 kts 230°
2026-04-16 09:43 24.72823 118.20066 29994 ft 441 kts 230°
2026-04-16 09:43 24.68391 118.15015 29998 ft 442 kts 230°
2026-04-16 09:44 24.64023 118.10028 30000 ft 442 kts 230°
2026-04-16 09:44 24.59686 118.05074 30007 ft 442 kts 230°
2026-04-16 09:45 24.55402 118.00156 30010 ft 441 kts 231°
2026-04-16 09:45 24.51254 117.95154 30011 ft 441 kts 231°
2026-04-16 09:46 24.47110 117.90134 30010 ft 441 kts 231°
2026-04-16 09:46 24.42963 117.85128 30008 ft 442 kts 231°
2026-04-16 09:47 24.38833 117.80155 30001 ft 441 kts 231°
2026-04-16 09:47 24.34706 117.75192 30003 ft 442 kts 231°
2026-04-16 09:48 24.30551 117.70202 30007 ft 442 kts 231°
2026-04-16 09:48 24.26410 117.65231 30012 ft 442 kts 231°
2026-04-16 09:49 24.22274 117.60270 30021 ft 442 kts 231°
2026-04-16 09:49 24.18137 117.55313 30032 ft 442 kts 231°
2026-04-16 09:50 24.13919 117.50384 30043 ft 443 kts 228°
2026-04-16 09:50 24.09383 117.45808 30053 ft 444 kts 226°
2026-04-16 09:51 24.04797 117.41308 30053 ft 444 kts 226°
2026-04-16 09:51 24.00185 117.36786 30047 ft 445 kts 226°
2026-04-16 09:52 23.95579 117.32274 30038 ft 445 kts 225°
2026-04-16 09:52 23.90976 117.27769 30027 ft 445 kts 225°
2026-04-16 09:53 23.86373 117.23266 30013 ft 445 kts 225°
2026-04-16 09:53 23.81765 117.18762 30000 ft 446 kts 225°
2026-04-16 09:54 23.77145 117.14231 29993 ft 445 kts 226°
2026-04-16 09:54 23.72788 117.09444 29988 ft 444 kts 229°
2026-04-16 09:55 23.68469 117.04567 29986 ft 445 kts 229°
2026-04-16 09:55 23.64147 116.99686 29984 ft 445 kts 229°
2026-04-16 09:56 23.59862 116.94848 29987 ft 444 kts 229°
2026-04-16 09:56 23.55539 116.89971 29991 ft 445 kts 229°
2026-04-16 09:57 23.51237 116.85123 29991 ft 444 kts 229°
2026-04-16 09:57 23.46933 116.80280 29989 ft 445 kts 229°
2026-04-16 09:58 23.42350 116.75654 29988 ft 448 kts 224°
2026-04-16 09:58 23.37407 116.71437 29986 ft 449 kts 221°
2026-04-16 09:59 23.32434 116.67275 29986 ft 449 kts 221°
2026-04-16 09:59 23.27400 116.63068 29987 ft 449 kts 221°
2026-04-16 10:00 23.22298 116.58808 29985 ft 449 kts 221°
2026-04-16 10:00 23.17195 116.54550 29985 ft 450 kts 221°
2026-04-16 10:01 23.09666 116.48275 29988 ft 450 kts 221°
2026-04-16 10:01 23.04679 116.44121 29988 ft 450 kts 221°
2026-04-16 10:02 22.99708 116.39983 29981 ft 449 kts 221°
2026-04-16 10:02 22.94732 116.35850 29908 ft 450 kts 221°
2026-04-16 10:03 22.89761 116.31725 29901 ft 450 kts 221°
2026-04-16 10:03 22.84750 116.27567 29901 ft 451 kts 221°
2026-04-16 10:04 22.79776 116.23435 29901 ft 451 kts 221°
2026-04-16 10:04 22.74775 116.19287 29901 ft 451 kts 221°
2026-04-16 10:05 22.69761 116.15143 29901 ft 451 kts 221°
2026-04-16 10:05 22.64754 116.11031 29901 ft 452 kts 220°
2026-04-16 10:06 22.59750 116.06917 29901 ft 451 kts 220°
2026-04-16 10:06 22.54759 116.02819 29901 ft 451 kts 220°
2026-04-16 10:07 22.50018 115.98431 29894 ft 446 kts 232°
2026-04-16 10:07 22.47004 115.92674 29898 ft 442 kts 252°
2026-04-16 10:08 22.46029 115.86163 29901 ft 442 kts 265°
2026-04-16 10:08 22.45638 115.79541 29894 ft 442 kts 266°
2026-04-16 10:09 22.45251 115.72930 29894 ft 441 kts 266°
2026-04-16 10:09 22.44857 115.66336 29890 ft 441 kts 266°
2026-04-16 10:10 22.44455 115.59715 29886 ft 441 kts 266°
2026-04-16 10:10 22.44053 115.53169 29882 ft 441 kts 266°
2026-04-16 10:11 22.43644 115.46551 29882 ft 441 kts 266°
2026-04-16 10:11 22.43232 115.39934 29881 ft 441 kts 266°
2026-04-16 10:12 22.42818 115.33323 29883 ft 441 kts 265°
2026-04-16 10:12 22.42402 115.26727 29835 ft 437 kts 265°
2026-04-16 10:13 22.42197 115.23489 29468 ft 434 kts 265°
2026-04-16 10:13 22.41990 115.20223 28747 ft 433 kts 265°
2026-04-16 10:13 22.41783 115.16972 27964 ft 433 kts 265°
2026-04-16 10:13 22.41577 115.13763 27131 ft 435 kts 265°
2026-04-16 10:14 22.41368 115.10514 26166 ft 438 kts 265°
2026-04-16 10:14 22.41158 115.07246 25152 ft 443 kts 265°
2026-04-16 10:14 22.40942 115.03909 24144 ft 447 kts 265°
2026-04-16 10:14 22.40726 115.00561 23433 ft 451 kts 265°
2026-04-16 10:15 22.40506 114.97178 23005 ft 452 kts 265°
2026-04-16 10:15 22.40285 114.93789 22883 ft 452 kts 265°
2026-04-16 10:15 22.40065 114.90420 22884 ft 453 kts 265°
2026-04-16 10:15 22.39842 114.87016 22882 ft 453 kts 265°
2026-04-16 10:16 22.39621 114.83659 22881 ft 452 kts 265°
2026-04-16 10:16 22.39397 114.80254 22882 ft 452 kts 265°
2026-04-16 10:16 22.39177 114.76917 22880 ft 452 kts 265°
2026-04-16 10:16 22.38950 114.73508 22881 ft 451 kts 265°
2026-04-16 10:17 22.38727 114.70164 22882 ft 452 kts 265°
2026-04-16 10:17 22.38499 114.66760 22884 ft 451 kts 265°
2026-04-16 10:17 22.38271 114.63377 22886 ft 451 kts 265°
2026-04-16 10:17 22.38044 114.60010 22889 ft 452 kts 265°
2026-04-16 10:18 22.37815 114.56619 22892 ft 452 kts 265°
2026-04-16 10:18 22.37583 114.53190 22897 ft 452 kts 265°
2026-04-16 10:18 22.37355 114.49839 22898 ft 452 kts 265°
2026-04-16 10:18 22.37126 114.46480 22846 ft 449 kts 265°
2026-04-16 10:19 22.36601 114.43091 22512 ft 446 kts 252°
2026-04-16 10:19 22.35240 114.40000 22290 ft 449 kts 244°
2026-04-16 10:19 22.33800 114.36997 22050 ft 448 kts 244°
2026-04-16 10:19 22.32388 114.34001 21813 ft 446 kts 244°
2026-04-16 10:20 22.31001 114.31012 21576 ft 444 kts 244°
2026-04-16 10:20 22.29629 114.28025 21338 ft 443 kts 244°
2026-04-16 10:20 22.28290 114.25091 21026 ft 442 kts 245°
2026-04-16 10:20 22.26941 114.22124 20534 ft 439 kts 245°
2026-04-16 10:21 22.25600 114.19169 19953 ft 434 kts 245°
2026-04-16 10:21 22.24282 114.16261 19351 ft 430 kts 245°
2026-04-16 10:21 22.22988 114.13407 18716 ft 426 kts 245°
2026-04-16 10:21 22.21692 114.10547 18061 ft 422 kts 245°
2026-04-16 10:22 22.20400 114.07698 17408 ft 418 kts 245°
2026-04-16 10:22 22.19129 114.04896 16789 ft 415 kts 245°
2026-04-16 10:22 22.17883 114.02151 16164 ft 412 kts 245°
2026-04-16 10:22 22.16624 113.99378 15504 ft 410 kts 244°
2026-04-16 10:23 22.15374 113.96625 14809 ft 409 kts 244°
2026-04-16 10:23 22.14126 113.93880 14144 ft 407 kts 244°
2026-04-16 10:23 22.12891 113.91166 13477 ft 406 kts 244°
2026-04-16 10:23 22.11653 113.88448 12924 ft 400 kts 244°
2026-04-16 10:24 22.10439 113.85783 12559 ft 390 kts 244°
2026-04-16 10:24 22.09266 113.83211 12295 ft 378 kts 244°
2026-04-16 10:24 22.08121 113.80696 11995 ft 368 kts 244°
2026-04-16 10:24 22.07005 113.78245 11665 ft 358 kts 244°
2026-04-16 10:25 22.05926 113.75881 11481 ft 346 kts 244°
2026-04-16 10:25 22.04882 113.73592 11303 ft 334 kts 244°
2026-04-16 10:25 22.03870 113.71378 11131 ft 322 kts 244°
2026-04-16 10:25 22.02938 113.69235 10932 ft 312 kts 249°
2026-04-16 10:26 22.02343 113.67019 10754 ft 301 kts 260°
2026-04-16 10:26 22.02097 113.64792 10578 ft 292 kts 267°
2026-04-16 10:26 22.02329 113.62680 10238 ft 288 kts 290°
2026-04-16 10:26 22.03396 113.60877 9848 ft 288 kts 315°
2026-04-16 10:27 22.04959 113.59531 9483 ft 287 kts 324°
2026-04-16 10:27 22.06605 113.58351 9074 ft 283 kts 326°
2026-04-16 10:27 22.08279 113.57175 8893 ft 284 kts 325°
2026-04-16 10:27 22.09943 113.55988 8892 ft 286 kts 325°
2026-04-16 10:28 22.11603 113.54784 8889 ft 286 kts 324°
2026-04-16 10:28 22.13253 113.53537 8888 ft 286 kts 323°
2026-04-16 10:28 22.14876 113.52283 8887 ft 286 kts 323°
2026-04-16 10:28 22.16501 113.51026 8886 ft 286 kts 323°
2026-04-16 10:29 22.18140 113.49760 8864 ft 282 kts 323°
2026-04-16 10:29 22.19889 113.48413 8335 ft 280 kts 323°
2026-04-16 10:29 22.21623 113.47393 7577 ft 286 kts 345°
2026-04-16 10:29 22.23642 113.47461 6994 ft 292 kts 18°
2026-04-16 10:30 22.25505 113.48588 6646 ft 288 kts 34°
2026-04-16 10:30 22.27313 113.49914 6431 ft 277 kts 33°
2026-04-16 10:30 22.28972 113.51102 6155 ft 269 kts 32°
2026-04-16 10:30 22.30512 113.52183 5990 ft 260 kts 32°
2026-04-16 10:31 22.32016 113.53229 5833 ft 251 kts 32°
2026-04-16 10:31 22.33508 113.54261 5620 ft 237 kts 32°
2026-04-16 10:31 22.34845 113.55185 5414 ft 213 kts 32°
2026-04-16 10:31 22.35986 113.56210 4782 ft 214 kts 55°
2026-04-16 10:32 22.36478 113.57695 4131 ft 210 kts 88°
2026-04-16 10:32 22.36471 113.59243 3767 ft 196 kts 94°
2026-04-16 10:32 22.36370 113.60665 3447 ft 185 kts 108°
2026-04-16 10:32 22.35681 113.61774 2956 ft 180 kts 146°
2026-04-16 10:33 22.34550 113.62285 2527 ft 176 kts 166°
2026-04-16 10:33 22.33387 113.62618 2430 ft 173 kts 166°
2026-04-16 10:33 22.32217 113.62960 2470 ft 176 kts 166°
2026-04-16 10:33 22.31030 113.63322 2480 ft 176 kts 166°
2026-04-16 10:34 22.29849 113.63689 2484 ft 176 kts 166°
2026-04-16 10:34 22.28665 113.63934 2458 ft 171 kts 187°
2026-04-16 10:34 22.27559 113.63486 2483 ft 170 kts 210°
2026-04-16 10:34 22.26572 113.62766 2390 ft 171 kts 215°
2026-04-16 10:35 22.25622 113.62006 2146 ft 167 kts 215°
2026-04-16 10:35 22.24704 113.61290 1884 ft 157 kts 214°
2026-04-16 10:35 22.23836 113.60635 1811 ft 150 kts 213°
2026-04-16 10:35 22.22998 113.60008 1795 ft 142 kts 213°
2026-04-16 10:36 22.22190 113.59427 1644 ft 139 kts 212°
2026-04-16 10:36 22.21391 113.58836 1413 ft 139 kts 212°
2026-04-16 10:36 22.20554 113.58308 1215 ft 137 kts 205°
2026-04-16 10:36 22.19672 113.57926 973 ft 138 kts 197°
2026-04-16 10:37 22.18732 113.57783 674 ft 137 kts 177°
2026-04-16 10:37 22.17810 113.58038 430 ft 137 kts 162°
2026-04-16 10:37 22.16920 113.58401 204 ft 136 kts 162°
2026-04-16 10:37 22.16020 113.58739 38 ft 135 kts 163°
2026-04-16 10:38 22.15198 113.59038 19 ft 106 kts 161°
2026-04-16 10:38 22.14654 113.59245 18 ft 62 kts 161°
2026-04-16 10:38 22.14319 113.59367 19 ft 39 kts 160°
2026-04-16 10:38 22.14158 113.59365 20 ft 19 kts 245°
2026-04-16 10:39 22.14160 113.59242 21 ft 17 kts 331°
2026-04-16 10:39 22.14279 113.59196 18 ft 19 kts 341°
2026-04-16 10:39 22.14412 113.59146 15 ft 20 kts 341°
2026-04-16 10:39 22.14547 113.59098 16 ft 20 kts 341°
2026-04-16 10:40 22.14668 113.59052 17 ft 17 kts 341°
2026-04-16 10:40 22.14764 113.58978 15 ft 18 kts 304°
2026-04-16 10:40 22.14838 113.58857 12 ft 20 kts 303°
2026-04-16 10:40 22.14916 113.58728 10 ft 20 kts 303°
2026-04-16 10:41 22.14996 113.58601 9 ft 20 kts 303°
2026-04-16 10:41 22.15072 113.58478 9 ft 19 kts 303°
2026-04-16 10:41 22.15146 113.58356 10 ft 19 kts 303°
2026-04-16 10:41 22.15220 113.58238 9 ft 18 kts 303°
2026-04-16 10:42 22.15291 113.58123 9 ft 18 kts 304°
2026-04-16 10:42 22.15369 113.57996 10 ft 21 kts 303°
2026-04-16 10:42 22.15474 113.57825 9 ft 34 kts 302°
2026-04-16 10:42 22.15594 113.57631 13 ft 22 kts 303°
2026-04-16 10:43 22.15709 113.57636 15 ft 19 kts 30°
2026-04-16 10:43 22.15818 113.57684 14 ft 8 kts 11°
2026-04-16 10:43 22.15853 113.57646 16 ft 5 kts 282°
2026-04-16 10:43 22.15857 113.57629 18 ft 0 kts 282°
2026-04-16 10:44 22.15863 113.57602 21 ft 1 kts 284°
2026-04-16 10:44 22.15863 113.57600 21 ft 0 kts 284°